Snowfall_Accumulation
nan nan nan nan nan nan nan 0.0 0.0 0.0 0.0 0.0 0.0 0.0 0.0 nan 0.0 0.0 0.0 0.0 0.0 0.0 0.0 0.0 0.1 0.4 0.1 0.0 0.0 0.1 0.1 3.7 6.4 6.9 4.9 3.2 6.5 11.0 8.7 18.2 17.8 12.2 10.5 13.0
nan nan nan nan nan nan 0.0 0.0 0.0 0.0 0.0 0.0 0.0 0.0 0.0 0.0 0.0 0.0 0.0 0.0 0.0 0.0 0.1 0.4 0.0 0.0 0.0 0.0 0.0 1.1 0.4 3.3 5.7 7.1 5.3 0.7 5.7 7.9 9.7 10.8 14.3 21.6 16.8 17.5
nan nan nan nan nan nan 0.0 0.0 0.0 0.0 0.0 0.0 0.1 0.1 0.0 0.0 0.0 0.0 0.0 0.0 0.0 0.0 0.0 0.0 0.4 0.1 0.2 0.0 0.0 nan nan 1.9 2.6 6.8 7.4 3.2 6.2 4.3 5.8 12.4 14.9 17.6 17.3 11.6
nan nan nan nan nan nan 0.0 0.0 0.1 0.1 0.1 0.0 0.0 0.1 0.0 0.0 0.1 0.0 0.0 0.0 0.1 1.3 2.3 0.1 0.1 0.0 0.0 0.0 nan 0.3 0.8 5.9 0.5 1.7 0.9 1.3 2.7 2.5 3.8 10.6 11.8 12.1 12.0 7.4
nan nan nan nan nan nan 0.0 0.0 0.1 0.1 0.0 0.0 0.0 0.1 0.1 0.2 0.0 0.3 0.4 0.3 0.2 0.0 1.9 2.1 4.8 1.5 0.0 0.2 0.0 0.0 0.5 4.3 0.8 1.3 0.3 0.1 0.6 0.4 0.3 1.4 6.9 7.7 5.0 5.8
nan nan nan nan nan nan 0.0 0.0 0.0 0.2 nan 0.1 0.6 0.9 0.1 0.0 0.0 0.1 0.0 0.1 0.3 0.1 0.1 0.0 0.0 0.0 0.1 0.4 0.7 0.6 2.2 3.0 1.9 2.7 0.0 0.3 1.7 2.2 1.1 4.1 3.7 4.6 5.7 7.8
nan nan nan nan nan nan 0.0 0.0 0.1 1.4 0.7 0.2 0.4 0.0 0.0 0.0 0.0 0.6 0.0 0.0 0.1 0.0 0.0 0.0 0.0 0.0 0.1 0.4 0.7 0.3 0.6 2.1 2.8 4.2 0.6 7.3 2.5 0.1 0.5 0.9 2.0 1.7 1.9 2.2
nan nan nan nan nan nan 0.0 0.0 0.1 1.5 5.1 0.2 0.1 0.0 0.0 0.0 0.0 0.0 0.0 0.0 0.0 0.0 0.0 1.8 1.8 0.2 0.2 0.3 0.0 0.0 0.2 3.4 11.7 10.8 2.6 1.1 0.3 0.5 1.1 1.8 1.2 0.4 0.8 0.3
nan nan nan nan nan nan 0.0 0.0 0.0 0.5 8.6 0.5 0.2 0.2 0.0 0.9 0.4 0.0 0.1 0.0 0.0 0.0 0.5 2.0 4.1 2.6 1.3 0.5 0.0 0.0 0.0 1.6 3.3 4.1 8.0 3.1 2.8 0.0 0.0 0.1 1.7 0.1 0.2 0.5
nan nan nan nan nan nan 0.0 0.0 0.0 0.7 10.1 0.3 0.0 1.0 1.9 0.9 2.2 4.6 0.2 0.0 0.0 0.0 1.5 3.6 4.5 2.1 0.3 3.5 1.3 1.2 0.4 2.9 6.7 2.4 6.9 2.1 0.2 0.0 0.0 2.2 2.6 0.1 0.1 0.4
nan nan nan nan nan nan 0.0 0.0 0.0 0.6 5.3 0.7 0.0 0.1 4.3 1.8 1.9 6.4 0.1 2.3 2.4 2.0 4.7 4.7 2.9 3.1 2.2 2.1 1.6 5.6 7.4 10.7 4.3 3.8 4.2 8.1 0.1 0.7 6.9 2.7 0.6 0.1 0.4 0.5
nan nan nan nan nan nan nan 0.0 0.0 0.0 1.6 0.8 0.0 0.0 0.0 0.2 0.5 5.8 1.9 1.0 0.7 2.6 4.8 6.2 5.0 3.4 2.6 3.3 3.5 3.1 10.8 7.7 10.9 5.6 1.7 0.9 0.6 5.5 3.4 4.5 6.5 3.3 3.3 0.5
nan nan nan nan nan nan nan 0.0 0.0 0.0 1.0 0.6 0.4 0.1 0.0 0.0 0.0 0.0 12.0 0.5 2.1 2.6 1.7 7.5 7.9 7.7 1.2 3.5 6.2 2.7 1.0 1.6 6.1 6.7 2.8 3.2 3.6 4.9 2.5 4.3 6.9 5.4 3.6 3.3
nan nan nan nan nan nan nan 0.0 0.0 0.0 0.2 5.5 1.1 0.0 0.0 0.0 0.0 0.0 0.0 1.1 0.7 3.1 3.5 11.6 7.4 5.5 1.5 3.8 4.5 3.4 3.4 3.1 3.7 3.9 3.6 2.8 1.2 3.5 6.0 6.4 3.9 5.8 4.9 6.1
nan nan nan nan nan nan nan 0.0 0.0 0.0 1.3 2.0 0.7 0.0 0.0 0.0 0.0 0.0 0.0 0.2 4.0 8.0 14.0 13.5 13.2 3.8 5.6 5.0 3.3 5.9 11.5 16.1 17.2 11.4 8.7 13.9 9.7 8.9 7.5 8.0 11.0 12.1 10.5 5.9
nan nan nan nan nan nan 0.0 0.2 0.0 0.0 0.0 4.7 2.6 0.0 0.0 0.0 0.0 0.0 0.2 1.2 4.8 7.3 9.5 10.4 7.4 3.3 4.6 9.7 8.2 5.2 8.7 9.6 15.0 22.9 13.7 15.8 12.8 9.5 10.3 13.6 14.1 12.0 13.1 12.2
nan nan nan nan nan 0.0 0.0 0.0 0.0 nan 0.0 2.6 5.3 0.5 0.0 0.0 0.1 0.4 1.1 1.3 3.5 6.5 7.0 7.5 4.2 4.6 4.2 7.3 14.7 11.6 12.0 14.1 14.1 11.7 9.8 10.8 13.9 23.2 16.2 15.8 16.9 11.9 10.9 11.2
nan nan nan nan nan nan 0.0 0.1 nan nan 0.5 0.8 12.3 2.7 0.1 0.1 2.5 4.4 1.0 4.9 3.3 3.6 4.5 4.7 4.5 2.8 5.1 15.9 10.5 10.8 10.0 6.9 9.2 13.1 12.9 17.2 8.9 9.6 11.9 8.9 7.9 5.8 7.5 6.4
nan nan nan 0.0 0.0 0.1 0.4 nan nan 0.6 0.2 8.1 5.7 5.2 4.8 0.1 0.9 3.5 4.1 2.8 9.5 4.0 5.8 4.7 3.6 5.3 19.1 17.5 13.5 10.7 11.4 16.4 17.5 8.5 8.3 5.7 8.5 5.8 4.8 3.3 2.6 3.3 4.5 2.1
nan 0.0 0.0 0.7 0.1 nan nan 0.4 0.5 1.1 3.6 2.9 3.8 0.6 4.9 1.5 1.4 2.7 4.2 4.3 5.5 14.7 6.6 1.4 8.0 14.5 4.9 10.4 11.2 10.2 9.4 8.0 5.1 4.1 4.6 2.2 2.0 1.3 0.9 0.6 0.2 0.7 0.6 0.6
0.0 0.5 1.0 0.4 nan 0.2 0.8 4.8 6.8 4.5 12.0 3.7 3.1 1.5 4.2 0.4 9.9 6.8 4.3 10.3 6.1 11.4 4.3 4.9 5.7 6.4 11.2 7.9 7.5 5.5 4.4 3.8 4.0 2.4 1.2 0.5 1.0 1.0 0.5 0.2 0.1 0.2 0.3 0.6
0.1 0.4 0.4 0.2 1.3 3.0 5.6 6.0 5.9 5.2 8.7 2.9 2.9 2.9 2.3 4.1 4.0 10.5 9.9 8.4 8.9 12.9 1.8 7.9 8.1 9.1 6.9 6.9 5.1 3.4 2.6 2.6 1.4 0.3 0.2 0.1 0.1 0.1 0.3 0.3 0.5 0.5 0.4 0.5
0.5 1.2 2.5 2.8 5.2 34.2 11.1 9.9 8.6 10.5 6.2 5.3 4.7 7.4 3.0 3.5 5.3 10.1 9.8 20.3 16.6 3.8 17.4 9.1 10.1 8.9 5.5 4.6 2.8 1.5 1.0 0.6 0.3 0.1 0.0 0.0 0.1 0.1 0.4 0.9 0.3 0.7 0.9 0.7
4.5 10.7 38.4 8.9 9.9 3.6 5.4 4.7 5.8 2.4 3.7 3.8 4.9 4.7 6.6 4.0 7.6 5.4 15.8 7.9 6.0 17.0 13.4 12.7 12.0 8.6 4.1 1.9 2.0 2.4 1.3 0.3 0.3 0.2 0.4 0.4 0.7 0.5 0.4 0.9 1.5 1.6 1.3 1.1
10.9 8.4 26.9 8.6 1.1 2.4 3.0 4.9 4.6 3.1 3.3 6.0 5.2 3.3 2.8 4.6 8.7 4.1 9.1 14.0 14.1 7.2 12.6 11.0 8.5 5.0 5.1 2.7 1.7 1.8 1.4 0.7 0.5 0.6 0.7 0.7 0.9 1.0 1.3 1.1 1.3 1.3 0.9 0.7
11.1 9.4 7.5 0.4 4.0 5.6 4.5 4.1 3.5 1.5 2.6 3.0 4.3 8.3 11.2 7.3 6.3 11.7 11.3 14.3 12.7 12.2 11.5 5.6 4.2 3.5 3.3 2.5 1.9 0.9 1.1 2.1 2.0 1.3 1.1 1.3 1.7 2.2 1.9 1.1 0.8 0.9 1.0 1.0
16.2 14.3 0.2 1.5 3.4 3.3 1.6 1.1 1.3 1.0 4.0 8.6 11.7 18.6 10.5 10.9 14.6 11.4 6.3 16.4 10.6 6.4 3.6 3.3 3.8 4.9 4.0 2.3 1.1 0.8 1.0 0.8 1.0 1.1 1.2 1.9 1.5 1.8 1.4 1.6 0.9 0.9 0.6 0.8
Water_Equivalent
nan nan nan nan nan nan nan 0.00 0.00 0.00 0.00 0.00 0.00 0.01 0.00 nan 0.00 0.00 0.00 0.00 0.00 0.00 0.00 0.00 0.02 0.05 0.01 0.00 0.00 0.02 0.01 0.39 0.66 0.60 0.54 0.39 0.71 0.96 0.80 1.51 1.41 0.91 0.77 1.00
nan nan nan nan nan nan 0.00 0.00 0.00 0.00 0.00 0.02 0.00 0.00 0.00 0.00 0.00 0.00 0.00 0.00 0.00 0.00 0.01 0.04 0.00 0.00 0.00 0.00 0.01 0.13 0.05 0.34 0.48 0.57 0.53 0.09 0.47 0.71 0.81 0.88 1.19 1.46 1.45 1.34
nan nan nan nan nan nan 0.00 0.00 0.01 0.00 0.00 0.00 0.02 0.01 0.00 0.00 0.00 0.00 0.00 0.00 0.00 0.01 0.00 0.00 0.05 0.01 0.02 0.00 0.01 nan nan 0.19 0.20 0.55 0.51 0.31 0.46 0.34 0.44 1.01 1.15 1.20 1.31 0.73
nan nan nan nan nan nan 0.00 0.00 0.02 0.01 0.01 0.00 0.00 0.02 0.01 0.01 0.01 0.00 0.00 0.00 0.01 0.16 0.21 0.01 0.01 0.00 0.00 0.00 nan 0.04 0.10 0.48 0.05 0.13 0.09 0.13 0.22 0.18 0.26 0.84 0.79 0.85 0.72 0.43
nan nan nan nan nan nan 0.00 0.00 0.03 0.02 0.00 0.00 0.00 0.03 0.02 0.03 0.00 0.04 0.06 0.04 0.03 0.00 0.17 0.23 0.42 0.15 0.00 0.02 0.00 0.00 0.06 0.39 0.07 0.10 0.03 0.01 0.05 0.04 0.02 0.09 0.43 0.47 0.29 0.32
nan nan nan nan nan nan 0.00 0.00 0.00 0.06 nan 0.02 0.11 0.14 0.02 0.01 0.00 0.01 0.01 0.01 0.06 0.01 0.02 0.01 0.00 0.00 0.01 0.06 0.06 0.05 0.21 0.26 0.15 0.18 0.00 0.02 0.15 0.14 0.08 0.27 0.24 0.29 0.33 0.47
nan nan nan nan nan nan 0.00 0.00 0.03 0.38 0.16 0.05 0.07 0.01 0.00 0.00 0.01 0.10 0.00 0.00 0.01 0.01 0.00 0.00 0.00 0.00 0.01 0.05 0.08 0.04 0.06 0.18 0.24 0.37 0.04 0.46 0.18 0.01 0.06 0.07 0.16 0.13 0.13 0.16
nan nan nan nan nan nan 0.00 0.00 0.06 0.43 0.80 0.04 0.01 0.00 0.00 0.00 0.00 0.00 0.00 0.00 0.00 0.00 0.01 0.22 0.19 0.03 0.02 0.03 0.00 0.01 0.03 0.33 1.01 0.84 0.17 0.07 0.02 0.05 0.09 0.12 0.08 0.04 0.07 0.04
nan nan nan nan nan nan 0.00 0.00 0.00 0.19 1.49 0.10 0.03 0.03 0.00 0.15 0.07 0.00 0.02 0.00 0.00 0.00 0.09 0.28 0.37 0.24 0.11 0.05 0.00 0.00 0.01 0.19 0.33 0.42 0.55 0.24 0.19 0.00 0.00 0.01 0.11 0.01 0.02 0.06
nan nan nan nan nan nan 0.00 0.00 0.00 0.26 1.73 0.08 0.01 0.19 0.33 0.15 0.30 0.65 0.03 0.00 0.01 0.00 0.22 0.40 0.48 0.22 0.04 0.28 0.10 0.09 0.04 0.26 0.63 0.22 0.53 0.17 0.02 0.00 0.00 0.16 0.21 0.02 0.01 0.05
nan nan nan nan nan nan 0.00 0.00 0.00 0.21 1.30 0.18 0.01 0.03 0.67 0.35 0.36 0.81 0.01 0.27 0.36 0.34 0.58 0.52 0.34 0.31 0.25 0.19 0.13 0.43 0.53 0.86 0.34 0.29 0.32 0.84 0.01 0.07 0.45 0.23 0.08 0.01 0.05 0.05
nan nan nan nan nan nan nan 0.00 0.00 0.00 0.53 0.18 0.00 0.00 0.00 0.05 0.13 1.09 0.33 0.14 0.10 0.39 0.55 0.78 0.54 0.35 0.27 0.31 0.25 0.27 0.92 0.62 0.79 0.49 0.12 0.08 0.06 0.50 0.34 0.43 0.57 0.29 0.29 0.05
nan nan nan nan nan nan nan 0.00 0.00 0.01 0.29 0.15 0.09 0.03 0.00 0.00 0.00 0.00 1.86 0.16 0.45 0.46 0.26 0.96 1.03 0.85 0.14 0.27 0.46 0.25 0.12 0.19 0.60 0.59 0.38 0.35 0.37 0.55 0.27 0.45 0.68 0.55 0.36 0.32
nan nan nan nan nan nan nan 0.00 0.00 0.00 0.07 0.77 0.21 0.00 0.00 0.00 0.00 0.00 0.01 0.24 0.17 0.60 0.65 1.62 0.96 0.59 0.18 0.37 0.49 0.31 0.32 0.28 0.35 0.39 0.46 0.37 0.16 0.38 0.63 0.69 0.45 0.68 0.63 0.68
nan nan nan nan nan nan nan 0.00 0.00 0.00 0.23 0.35 0.15 0.00 0.00 0.00 0.00 0.00 0.00 0.05 0.76 1.30 2.17 2.07 1.71 0.51 0.76 0.77 0.42 0.56 1.14 1.55 1.49 0.95 0.84 1.39 1.22 0.98 0.84 0.85 1.28 1.59 1.15 0.65
nan nan nan nan nan nan 0.00 0.03 0.00 0.00 0.01 0.80 0.41 0.00 0.00 0.00 0.00 0.01 0.05 0.22 0.77 1.15 1.46 1.46 1.28 0.64 0.66 1.28 0.74 0.51 0.89 1.09 1.78 2.55 1.66 1.95 1.67 1.28 1.26 1.53 1.70 1.44 1.55 1.51
nan nan nan nan nan 0.00 0.00 0.01 0.01 nan 0.01 0.54 1.09 0.10 0.00 0.00 0.03 0.09 0.19 0.21 0.55 0.94 1.13 1.04 0.59 0.57 0.53 0.90 1.17 1.20 1.37 1.74 1.74 1.46 1.11 1.26 1.66 2.94 2.03 1.91 2.16 1.43 1.38 1.41
nan nan nan nan nan nan 0.01 0.02 nan nan 0.09 0.19 2.35 0.52 0.02 0.02 0.43 0.61 0.18 0.74 0.47 0.52 0.68 0.64 0.56 0.36 0.57 1.42 1.04 1.17 1.17 0.81 1.05 1.55 1.49 2.04 1.06 1.13 1.44 1.11 0.96 0.65 0.84 0.76
nan nan nan 0.00 0.00 0.01 0.06 nan nan 0.14 0.05 1.52 0.99 0.87 1.03 0.02 0.13 0.46 0.52 0.42 1.21 0.62 0.77 0.54 0.36 0.70 1.68 1.71 1.34 1.10 1.25 1.79 2.02 0.99 0.94 0.62 0.89 0.64 0.55 0.38 0.30 0.32 0.49 0.24
nan 0.00 0.00 0.22 0.01 nan nan 0.07 0.18 0.39 0.78 0.62 0.57 0.09 0.63 0.18 0.17 0.33 0.53 0.58 0.80 2.54 0.71 0.18 0.94 1.39 0.50 1.08 1.23 1.12 1.05 0.89 0.56 0.38 0.44 0.23 0.21 0.13 0.09 0.06 0.02 0.06 0.05 0.05
0.00 0.16 0.22 0.09 nan 0.03 0.21 0.84 1.20 0.79 1.85 0.59 0.48 0.23 0.45 0.06 1.32 0.82 0.56 1.85 1.02 1.80 0.54 0.60 0.77 0.56 1.01 0.87 0.81 0.64 0.51 0.41 0.43 0.26 0.13 0.06 0.10 0.08 0.04 0.02 0.01 0.02 0.03 0.05
0.02 0.11 0.10 0.05 0.34 0.68 1.02 1.19 1.13 0.85 1.24 0.47 0.40 0.39 0.34 0.59 0.58 1.37 1.51 1.28 1.55 1.77 0.23 1.20 0.90 0.81 0.72 0.75 0.58 0.40 0.27 0.27 0.14 0.03 0.02 0.01 0.01 0.01 0.02 0.03 0.04 0.04 0.03 0.05
0.13 0.27 0.51 0.53 1.06 5.12 1.91 1.41 1.75 1.97 0.97 0.90 0.69 1.23 0.32 0.43 0.77 1.48 1.41 3.08 2.44 0.54 2.79 0.97 0.99 0.91 0.60 0.53 0.32 0.14 0.09 0.06 0.03 0.02 0.00 0.00 0.01 0.01 0.04 0.08 0.02 0.07 0.07 0.06
0.86 2.50 6.61 1.65 1.78 0.59 0.88 0.65 0.90 0.43 0.63 0.52 0.60 0.76 0.83 0.51 1.06 0.74 2.40 0.97 0.69 2.17 1.66 1.24 1.19 0.90 0.44 0.19 0.19 0.23 0.13 0.03 0.04 0.02 0.04 0.04 0.07 0.05 0.04 0.09 0.13 0.13 0.10 0.09
2.32 1.65 4.00 1.68 0.28 0.61 0.68 1.13 0.93 0.59 0.47 0.77 0.67 0.50 0.31 0.91 1.33 0.45 1.25 1.77 1.82 0.79 1.37 1.17 1.07 0.68 0.71 0.29 0.18 0.24 0.28 0.12 0.07 0.09 0.08 0.08 0.09 0.10 0.12 0.10 0.10 0.10 0.07 0.06
3.03 2.28 1.71 0.08 0.93 1.26 0.99 1.20 0.88 0.28 0.34 0.43 0.67 1.35 1.65 1.14 0.93 1.57 1.42 1.75 1.40 1.41 1.44 0.70 0.51 0.36 0.38 0.26 0.20 0.10 0.21 0.50 0.49 0.24 0.13 0.14 0.17 0.21 0.17 0.09 0.07 0.08 0.08 0.08
4.50 3.30 0.04 0.35 0.72 0.70 0.27 0.13 0.15 0.11 0.68 1.46 1.82 2.42 1.38 1.55 1.78 1.33 0.88 2.00 1.23 0.95 0.56 0.41 0.39 0.49 0.41 0.25 0.12 0.10 0.11 0.10 0.11 0.11 0.12 0.16 0.12 0.14 0.11 0.15 0.08 0.09 0.06 0.06
SL_Ratio
nan nan nan nan nan nan nan nan 2.5 nan nan 2.5 nan 2.9 nan nan nan nan nan nan nan nan nan nan 6.3 7.6 6.7 5.0 nan 7.5 5.3 9.6 9.7 11.7 9.1 8.4 9.2 11.5 10.9 12.0 12.6 13.5 13.6 13.1
nan nan nan nan nan nan nan nan nan nan nan 2.6 0.0 nan nan nan nan nan nan nan nan nan 5.6 8.7 10.0 7.5 5.0 nan 6.7 8.0 8.1 9.5 11.7 12.4 10.1 8.4 12.1 11.1 11.9 12.2 11.9 14.8 11.6 13.1
nan nan nan nan nan nan nan nan 2.6 nan nan nan 3.5 3.8 nan nan nan 7.5 5.0 5.7 nan 4.4 nan nan 7.9 7.4 6.5 5.0 6.4 nan nan 10.3 13.0 12.4 14.6 10.3 13.4 12.8 13.3 12.3 13.0 14.7 13.2 15.8
nan nan nan nan nan nan nan nan 3.4 3.9 4.7 nan 3.3 4.2 4.3 4.0 5.9 6.7 6.3 6.4 6.7 8.4 10.9 7.5 8.5 6.3 nan nan nan 6.6 8.3 12.3 9.9 12.9 9.8 9.8 12.2 14.0 14.7 12.7 14.8 14.2 16.7 17.1
nan nan nan nan nan nan nan nan 3.4 3.3 7.5 nan 5.0 4.7 4.6 5.2 6.4 6.0 6.1 6.7 6.5 5.0 11.2 9.3 11.5 10.1 8.8 8.1 10.0 7.9 7.7 11.0 10.9 13.4 10.9 10.0 13.2 11.0 11.0 15.5 16.1 16.5 17.2 18.0
nan nan nan nan nan nan nan 0.0 3.3 3.0 nan 3.9 4.9 6.1 6.6 6.5 6.3 6.6 4.5 5.7 6.3 6.8 5.2 4.4 5.0 nan 5.7 7.8 10.5 10.8 10.3 11.3 12.3 15.6 15.0 13.4 11.3 15.9 13.4 15.5 15.3 15.9 17.0 16.6
nan nan nan nan nan nan nan nan 2.7 3.8 4.5 4.6 5.7 6.5 nan nan 6.3 6.6 nan nan 4.8 4.7 nan nan nan nan 7.8 8.1 9.2 8.5 10.2 11.9 11.6 11.6 15.0 16.0 13.6 8.2 9.2 13.1 12.5 13.1 14.1 13.7
nan nan nan nan nan nan nan nan 2.5 3.4 6.4 4.8 4.7 6.3 nan nan nan nan 8.0 nan 5.0 nan 4.2 8.1 9.3 8.5 8.1 10.5 5.0 5.9 6.9 10.4 11.5 12.9 15.1 16.3 13.4 10.8 13.2 14.7 14.4 8.9 11.1 8.6
nan nan nan nan nan nan nan nan nan 2.6 5.8 5.4 5.4 4.9 5.0 5.8 5.8 5.0 6.5 nan nan nan 5.4 7.4 11.1 11.0 12.4 11.0 9.0 5.0 8.1 8.6 10.1 9.8 14.4 12.9 14.6 5.0 nan 8.5 15.0 9.2 8.1 8.4
nan nan nan nan nan nan nan nan nan 2.7 5.8 4.3 4.1 5.3 5.8 5.6 7.4 7.1 6.0 6.4 3.3 nan 6.8 9.2 9.3 9.4 7.3 12.5 13.1 13.4 11.2 10.9 10.6 10.8 13.1 12.3 10.6 nan nan 14.2 12.0 7.7 7.7 8.1
nan nan nan nan nan nan nan nan nan 2.6 4.1 3.9 3.0 4.1 6.4 5.1 5.4 7.9 5.5 8.3 6.7 5.9 8.0 8.9 8.4 9.9 9.1 11.1 12.4 13.1 14.0 12.4 12.7 12.8 13.0 9.6 7.1 9.4 15.5 11.6 8.1 7.6 8.5 9.1
nan nan nan nan nan nan nan 2.5 nan nan 2.9 4.4 nan nan 4.0 4.2 4.1 5.3 5.8 6.6 6.8 6.7 8.6 8.0 9.2 9.9 9.5 10.4 13.6 11.4 11.7 12.6 13.8 11.4 14.0 11.4 9.9 11.0 9.8 10.6 11.3 11.5 11.2 8.8
nan nan nan nan nan nan nan nan nan 3.2 3.6 3.6 3.7 3.8 nan nan nan nan 6.5 3.4 4.8 5.7 6.4 7.8 7.7 9.1 8.8 12.8 13.5 10.7 8.0 8.3 10.2 11.3 7.4 9.1 9.6 8.8 9.5 9.5 10.1 10.0 10.0 10.4
nan nan nan nan nan nan nan nan nan 1.7 3.5 7.1 5.1 nan nan nan nan nan 3.8 4.6 4.3 5.2 5.4 7.1 7.7 9.3 8.6 10.2 9.1 10.8 10.5 11.2 10.7 10.0 7.8 7.7 7.3 9.0 9.5 9.3 8.7 8.5 7.8 9.0
nan nan nan nan nan nan nan nan nan nan 5.4 5.7 4.8 5.0 nan nan nan nan nan 4.4 5.3 6.2 6.4 6.5 7.7 7.4 7.4 6.6 7.9 10.4 10.1 10.4 11.5 12.0 10.3 9.9 7.9 9.0 8.9 9.5 8.6 7.6 9.1 9.2
nan nan nan nan nan nan nan 5.3 nan nan 3.6 5.9 6.4 nan nan nan nan 3.9 5.1 5.4 6.3 6.4 6.5 7.1 5.8 5.1 6.9 7.6 11.1 10.2 9.8 8.8 8.4 9.0 8.2 8.1 7.7 7.4 8.2 8.9 8.3 8.3 8.5 8.0
nan nan nan nan nan nan nan 5.0 5.9 nan 3.9 4.7 4.9 4.7 nan 5.0 4.0 4.3 6.0 6.3 6.3 6.8 6.1 7.2 7.1 8.0 7.9 8.1 12.5 9.7 8.8 8.1 8.1 8.0 8.8 8.6 8.4 7.9 8.0 8.3 7.8 8.3 7.9 7.9
nan nan nan nan nan nan 2.6 2.9 nan nan 5.4 4.4 5.2 5.2 6.8 4.1 5.8 7.2 5.7 6.6 6.9 7.0 6.6 7.4 8.2 7.9 8.8 11.2 10.1 9.2 8.5 8.5 8.7 8.5 8.6 8.4 8.4 8.5 8.3 8.0 8.3 8.9 8.9 8.4
nan nan nan nan nan 6.6 5.6 nan nan 4.5 4.4 5.4 5.8 5.9 4.6 6.8 6.7 7.5 7.8 6.7 7.8 6.6 7.6 8.8 10.1 7.5 11.3 10.2 10.1 9.7 9.1 9.2 8.7 8.6 8.8 9.2 9.6 9.0 8.6 8.7 8.7 10.2 9.1 8.9
nan nan 3.3 3.3 5.9 nan nan 5.7 2.9 2.9 4.6 4.6 6.6 6.7 7.8 8.8 8.4 8.1 7.9 7.4 6.9 5.8 9.3 7.8 8.5 10.4 9.8 9.6 9.1 9.1 9.0 9.0 9.1 10.7 10.5 9.4 9.5 9.8 10.5 9.6 9.4 11.2 11.6 11.4
nan 3.3 4.4 4.6 nan 5.6 3.6 5.7 5.7 5.6 6.5 6.3 6.6 6.7 9.4 6.7 7.5 8.3 7.7 5.5 5.9 6.3 7.9 8.2 7.4 11.5 11.0 9.1 9.2 8.6 8.7 9.2 9.3 9.3 9.1 9.6 11.0 12.6 13.3 13.5 11.5 11.2 10.6 12.2
2.6 3.1 4.0 4.7 3.9 4.4 5.5 5.0 5.2 6.1 7.1 6.3 7.2 7.4 6.8 6.9 7.0 7.6 6.6 6.6 5.7 7.3 7.7 6.6 9.0 11.2 9.6 9.2 8.7 8.5 9.5 9.8 9.9 9.4 9.4 9.6 11.9 13.2 12.7 12.3 12.9 11.8 10.8 10.6
3.6 4.6 5.0 5.4 4.9 6.7 5.8 7.0 4.9 5.3 6.4 5.9 6.9 6.1 9.2 8.3 6.9 6.8 6.9 6.6 6.8 7.0 6.2 9.4 10.2 9.7 9.2 8.7 8.8 10.6 10.7 9.9 9.2 8.1 8.3 10.0 10.0 9.1 10.5 11.6 11.2 11.2 12.1 11.4
5.3 4.3 5.8 5.4 5.6 6.1 6.1 7.2 6.5 5.6 5.8 7.4 8.1 6.2 8.0 7.9 7.2 7.4 6.6 8.2 8.7 7.8 8.1 10.3 10.0 9.6 9.3 9.9 10.1 10.2 9.9 10.9 8.9 8.3 8.6 9.2 10.5 10.4 9.8 10.5 11.6 12.8 13.4 12.6
4.7 5.1 6.7 5.2 4.1 3.9 4.4 4.3 4.9 5.3 7.1 7.8 7.8 6.5 9.0 5.1 6.6 9.1 7.3 7.9 7.7 9.1 9.2 9.4 8.0 7.3 7.3 9.6 9.7 7.8 5.1 5.4 7.2 6.9 8.2 8.6 10.1 10.4 10.8 11.8 12.6 12.9 13.0 13.0
3.7 4.1 4.4 4.7 4.3 4.4 4.5 3.5 4.0 5.3 7.6 7.1 6.4 6.2 6.8 6.4 6.8 7.5 8.0 8.2 9.1 8.6 8.0 8.0 8.4 9.6 8.5 9.7 9.4 8.7 5.2 4.2 4.2 5.4 8.5 9.4 10.3 10.3 11.1 11.3 11.3 11.6 12.2 12.0
3.6 4.3 4.5 4.3 4.7 4.7 6.0 8.8 8.6 9.3 5.9 5.9 6.4 7.7 7.7 7.0 8.2 8.5 7.2 8.2 8.6 6.8 6.4 7.9 9.8 10.0 9.7 9.2 8.9 8.6 8.7 8.4 8.8 9.3 10.2 11.5 12.2 12.6 12.4 10.6 12.1 9.9 10.1 12.3